Location: �quirre
(50.4736°N, 2.2351°E)
Time: 06:34:58
(UTC+00:00)

CZ-2D R/B - Pass Details

Date: 07 August 2020
Orbit: 792 x 845 km, 98.7° (Epoch: 23 September)

Event Time Altitude Azimuth Distance (km) Brightness Sun altitude
Rises 00:28:37 0° 23° (NNE) 3,410 6.7 -22.8°
Reaches altitude 10° 00:31:25 10° 37° (NE) 2,474 5.5 -22.8°
Maximum altitude 00:35:55 25° 92° (E) 1,637 3.7 -22.6°
Enters shadow 00:38:04 20° 125° (SE) 1,862 3.7 -22.6°
